sat.trackr.live / text

‹ back to catalog

STARLINK-30880

NORAD 58232 · 2023-171C

PAYLOAD ACTIVE UNKNOWN

§ Identity

Operator
Country
US
Launch date
2023-11-08
Launch site
AFETR
Launch vehicle
Mass (kg)
RCS (m²)

Purposes: comms

External: N2YO · Heavens-Above · Gunter

§ Orbital elements

Epoch: 2026-05-25T05:21:54.732960Z

Period
94.27 min
Inclination
43.0026°
Eccentricity
0.0001612
Mean motion
15.27507274 rev/d
Perigee alt
482.2 km
Apogee alt
484.4 km
Semi-major
6,861.4 km
B*
-4.7246e-4
RAAN
212.6543°
Arg perigee
269.8377°
Mean anomaly
90.2290°
Rev number
14,144

§ Raw data

STARLINK-308801 58232U 23171C   26145.22355015 -.00013211  00000+0 -47246-3 0  99902 58232  43.0026 212.6543 0001612 269.8377  90.2290 15.27507274141448

JSON: /api/v1/satellites/58232 · /tle

For live sub-satellite position, see the globe view (requires WebGL).

§ Visibility from observer

Set your observer location to see the next 7 days of passes ≥ 10°. The values pass through the URL so the page stays shareable.

No JS? Fill the form by hand. The geolocation button needs JavaScript.